Location: Chervonnoye
(48.6000°N, 34.4000°E)
Time: 21:24:33
(UTC+00:00)

BEESAT 3 - Pass Details

Date: 09 December 2021
Orbit: 472 x 512 km, 64.9° (Epoch: 27 January)

Event Time Altitude Azimuth Distance (km) Brightness Sun altitude
Rises 15:03:29 0° 187° (S) 2,541 ? -12.0°
Reaches altitude 10° 15:05:50 10° 174° (S) 1,674 ? -12.4°
Maximum altitude 15:08:58 26° 117° (ESE) 1,011 ? -12.9°
Enters shadow 15:10:17 21° 85° (E) 1,160 ? -13.1°
